Year,Month,Day,Hour,Minute,Value (Times are PST for temperature in C)
2010,08,06,00,00,16.20
2010,08,06,00,01,16.20
2010,08,06,00,02,16.20
2010,08,06,00,03,16.20
2010,08,06,00,04,16.20
2010,08,06,00,05,16.20
2010,08,06,00,06,16.20
2010,08,06,00,07,16.20
2010,08,06,00,08,16.20
2010,08,06,00,09,16.20
2010,08,06,00,10,16.10
2010,08,06,00,11,16.10
2010,08,06,00,12,16.10
2010,08,06,00,13,16.00
2010,08,06,00,14,15.90
2010,08,06,00,15,15.90
2010,08,06,00,16,15.80
2010,08,06,00,17,15.80
2010,08,06,00,18,15.80
2010,08,06,00,19,15.90
2010,08,06,00,20,15.90
2010,08,06,00,21,15.90
2010,08,06,00,22,16.00
2010,08,06,00,23,16.00
2010,08,06,00,24,16.10
2010,08,06,00,25,16.10
2010,08,06,00,26,16.20
2010,08,06,00,27,16.20
2010,08,06,00,28,16.20
2010,08,06,00,29,16.30
2010,08,06,00,30,16.30
2010,08,06,00,31,16.40
2010,08,06,00,32,16.40
2010,08,06,00,33,16.50
2010,08,06,00,34,16.50
2010,08,06,00,35,16.60
2010,08,06,00,36,16.60
2010,08,06,00,37,16.60
2010,08,06,00,38,16.70
2010,08,06,00,39,16.70
2010,08,06,00,40,16.70
2010,08,06,00,41,16.80
2010,08,06,00,42,16.80
2010,08,06,00,43,16.80
2010,08,06,00,44,16.80
2010,08,06,00,45,16.90
2010,08,06,00,46,16.90
2010,08,06,00,47,16.90
2010,08,06,00,48,16.90
2010,08,06,00,49,17.00
2010,08,06,00,50,17.00
2010,08,06,00,51,17.00
2010,08,06,00,52,17.10
2010,08,06,00,53,17.10
2010,08,06,00,54,17.10
2010,08,06,00,55,17.10
2010,08,06,00,56,17.10
2010,08,06,00,57,17.10
2010,08,06,00,58,17.10
2010,08,06,00,59,17.00
2010,08,06,01,00,17.00
2010,08,06,01,01,16.90
2010,08,06,01,02,16.90
2010,08,06,01,03,16.80
2010,08,06,01,04,16.70
2010,08,06,01,05,16.60
2010,08,06,01,06,16.60
2010,08,06,01,07,16.50
2010,08,06,01,08,16.40
2010,08,06,01,09,16.30
2010,08,06,01,10,16.30
2010,08,06,01,11,16.20
2010,08,06,01,12,16.20
2010,08,06,01,13,16.10
2010,08,06,01,14,16.10
2010,08,06,01,15,16.00
2010,08,06,01,16,16.00
2010,08,06,01,17,15.90
2010,08,06,01,18,15.90
2010,08,06,01,19,15.90
2010,08,06,01,20,15.90
2010,08,06,01,21,15.90
2010,08,06,01,22,15.80
2010,08,06,01,23,15.80
2010,08,06,01,24,15.80
2010,08,06,01,25,15.70
2010,08,06,01,26,15.70
2010,08,06,01,27,15.70
2010,08,06,01,28,15.70
2010,08,06,01,29,15.60
2010,08,06,01,30,15.60
2010,08,06,01,31,15.60
2010,08,06,01,32,15.50
2010,08,06,01,33,15.50
2010,08,06,01,34,15.50
2010,08,06,01,35,15.40
2010,08,06,01,36,15.40
2010,08,06,01,37,15.40
2010,08,06,01,38,15.30
2010,08,06,01,39,15.30
2010,08,06,01,40,15.30
2010,08,06,01,41,15.30
2010,08,06,01,42,15.20
2010,08,06,01,43,15.20
2010,08,06,01,44,15.20
2010,08,06,01,45,15.20
2010,08,06,01,46,15.10
2010,08,06,01,47,15.10
2010,08,06,01,48,15.10
2010,08,06,01,49,15.00
2010,08,06,01,50,15.00
2010,08,06,01,51,15.00
2010,08,06,01,52,15.00
2010,08,06,01,53,15.00
2010,08,06,01,54,15.00
2010,08,06,01,55,15.00
2010,08,06,01,56,15.00
2010,08,06,01,57,15.00
2010,08,06,01,58,15.00
2010,08,06,01,59,14.90
2010,08,06,02,00,14.90
2010,08,06,02,01,14.90
2010,08,06,02,02,14.90
2010,08,06,02,03,14.90
2010,08,06,02,04,14.90
2010,08,06,02,05,14.90
2010,08,06,02,06,14.90
2010,08,06,02,07,14.90
2010,08,06,02,08,14.80
2010,08,06,02,09,14.80
2010,08,06,02,10,14.80
2010,08,06,02,11,14.80
2010,08,06,02,12,14.80
2010,08,06,02,13,14.80
2010,08,06,02,14,14.80
2010,08,06,02,15,14.80
2010,08,06,02,16,14.80
2010,08,06,02,17,14.80
2010,08,06,02,18,14.80
2010,08,06,02,19,14.70
2010,08,06,02,20,14.70
2010,08,06,02,21,14.70
2010,08,06,02,22,14.70
2010,08,06,02,23,14.70
2010,08,06,02,24,14.80
2010,08,06,02,25,14.80
2010,08,06,02,26,14.80
2010,08,06,02,27,14.80
2010,08,06,02,28,14.80
2010,08,06,02,29,14.80
2010,08,06,02,30,14.80
2010,08,06,02,31,14.80
2010,08,06,02,32,14.80
2010,08,06,02,33,14.80
2010,08,06,02,34,14.80
2010,08,06,02,35,14.70
2010,08,06,02,36,14.70
2010,08,06,02,37,14.70
2010,08,06,02,38,14.60
2010,08,06,02,39,14.60
2010,08,06,02,40,14.50
2010,08,06,02,41,14.40
2010,08,06,02,42,14.40
2010,08,06,02,43,14.30
2010,08,06,02,44,14.30
2010,08,06,02,45,14.30
2010,08,06,02,46,14.20
2010,08,06,02,47,14.20
2010,08,06,02,48,14.20
2010,08,06,02,49,14.10
2010,08,06,02,50,14.10
2010,08,06,02,51,14.10
2010,08,06,02,52,14.10
2010,08,06,02,53,14.00
2010,08,06,02,54,14.00
2010,08,06,02,55,13.90
2010,08,06,02,56,13.90
2010,08,06,02,57,13.90
2010,08,06,02,58,13.80
2010,08,06,02,59,13.80
2010,08,06,03,00,13.80
2010,08,06,03,01,13.80
2010,08,06,03,02,13.70
2010,08,06,03,03,13.70
2010,08,06,03,04,13.70
2010,08,06,03,05,13.70
2010,08,06,03,06,13.60
2010,08,06,03,07,13.60
2010,08,06,03,08,13.60
2010,08,06,03,09,13.60
2010,08,06,03,10,13.60
2010,08,06,03,11,13.60
2010,08,06,03,12,13.50
2010,08,06,03,13,13.50
2010,08,06,03,14,13.50
2010,08,06,03,15,13.40
2010,08,06,03,16,13.40
2010,08,06,03,17,13.40
2010,08,06,03,18,13.40
2010,08,06,03,19,13.30
2010,08,06,03,20,13.30
2010,08,06,03,21,13.30
2010,08,06,03,22,13.30
2010,08,06,03,23,13.30
2010,08,06,03,24,13.20
2010,08,06,03,25,13.20
2010,08,06,03,26,13.20
2010,08,06,03,27,13.20
2010,08,06,03,28,13.20
2010,08,06,03,29,13.20
2010,08,06,03,30,13.20
2010,08,06,03,31,13.20
2010,08,06,03,32,13.20
2010,08,06,03,33,13.20
2010,08,06,03,34,13.20
2010,08,06,03,35,13.10
2010,08,06,03,36,13.10
2010,08,06,03,37,13.10
2010,08,06,03,38,13.10
2010,08,06,03,39,13.10
2010,08,06,03,40,13.10
2010,08,06,03,41,13.00
2010,08,06,03,42,13.00
2010,08,06,03,43,13.00
2010,08,06,03,44,12.90
2010,08,06,03,45,12.90
2010,08,06,03,46,12.90
2010,08,06,03,47,12.90
2010,08,06,03,48,12.90
2010,08,06,03,49,12.80
2010,08,06,03,50,12.80
2010,08,06,03,51,12.80
2010,08,06,03,52,12.80
2010,08,06,03,53,12.80
2010,08,06,03,54,12.80
2010,08,06,03,55,12.80
2010,08,06,03,56,12.80
2010,08,06,03,57,12.80
2010,08,06,03,58,12.80
2010,08,06,03,59,12.80
2010,08,06,04,00,12.80
2010,08,06,04,01,12.80
2010,08,06,04,02,12.80
2010,08,06,04,03,12.80
2010,08,06,04,04,12.80
2010,08,06,04,05,12.80
2010,08,06,04,06,12.80
2010,08,06,04,07,12.80
2010,08,06,04,08,12.80
2010,08,06,04,09,12.80
2010,08,06,04,10,12.80
2010,08,06,04,11,12.80
2010,08,06,04,12,12.80
2010,08,06,04,13,12.80
2010,08,06,04,14,12.80
2010,08,06,04,15,12.80
2010,08,06,04,16,12.80
2010,08,06,04,17,12.80
2010,08,06,04,18,12.80
2010,08,06,04,19,12.80
2010,08,06,04,20,12.80
2010,08,06,04,21,12.80
2010,08,06,04,22,12.90
2010,08,06,04,23,12.90
2010,08,06,04,24,12.90
2010,08,06,04,25,12.90
2010,08,06,04,26,12.90
2010,08,06,04,27,13.00
2010,08,06,04,28,13.00
2010,08,06,04,29,13.10
2010,08,06,04,30,13.10
2010,08,06,04,31,13.10
2010,08,06,04,32,13.10
2010,08,06,04,33,13.20
2010,08,06,04,34,13.20
2010,08,06,04,35,13.20
2010,08,06,04,36,13.20
2010,08,06,04,37,13.20
2010,08,06,04,38,13.20
2010,08,06,04,39,13.20
2010,08,06,04,40,13.20
2010,08,06,04,41,13.20
2010,08,06,04,42,13.20
2010,08,06,04,43,13.20
2010,08,06,04,44,13.20
2010,08,06,04,45,13.20
2010,08,06,04,46,13.20
2010,08,06,04,47,13.20
2010,08,06,04,48,13.20
2010,08,06,04,49,13.20
2010,08,06,04,50,13.20
2010,08,06,04,51,13.20
2010,08,06,04,52,13.20
2010,08,06,04,53,13.10
2010,08,06,04,54,13.10
2010,08,06,04,55,13.10
2010,08,06,04,56,13.10
2010,08,06,04,57,13.10
2010,08,06,04,58,13.10
2010,08,06,04,59,13.10
2010,08,06,05,00,13.10
2010,08,06,05,01,13.10
2010,08,06,05,02,13.10
2010,08,06,05,03,13.10
2010,08,06,05,04,13.10
2010,08,06,05,05,13.10
2010,08,06,05,06,13.10
2010,08,06,05,07,13.10
2010,08,06,05,08,13.10
2010,08,06,05,09,13.00
2010,08,06,05,10,13.00
2010,08,06,05,11,13.00
2010,08,06,05,12,13.00
2010,08,06,05,13,13.00
2010,08,06,05,14,13.00
2010,08,06,05,15,13.00
2010,08,06,05,16,13.00
2010,08,06,05,17,13.00
2010,08,06,05,18,13.00
2010,08,06,05,19,12.90
2010,08,06,05,20,12.90
2010,08,06,05,21,12.90
2010,08,06,05,22,12.90
2010,08,06,05,23,12.90
2010,08,06,05,24,12.90
2010,08,06,05,25,12.90
2010,08,06,05,26,12.90
2010,08,06,05,27,12.90
2010,08,06,05,28,12.90
2010,08,06,05,29,12.90
2010,08,06,05,30,12.90
2010,08,06,05,31,12.90
2010,08,06,05,32,12.90
2010,08,06,05,33,12.90
2010,08,06,05,34,12.90
2010,08,06,05,35,12.90
2010,08,06,05,36,12.90
2010,08,06,05,37,12.90
2010,08,06,05,38,12.90
2010,08,06,05,39,12.90
2010,08,06,05,40,13.00
2010,08,06,05,41,12.90
2010,08,06,05,42,12.90
2010,08,06,05,43,12.90
2010,08,06,05,44,12.90
2010,08,06,05,45,12.90
2010,08,06,05,46,12.90
2010,08,06,05,47,12.90
2010,08,06,05,48,12.90
2010,08,06,05,49,12.90
2010,08,06,05,50,12.90
2010,08,06,05,51,12.90
2010,08,06,05,52,12.90
2010,08,06,05,53,12.90
2010,08,06,05,54,13.00
2010,08,06,05,55,13.00
2010,08,06,05,56,13.00
2010,08,06,05,57,13.10
2010,08,06,05,58,13.10
2010,08,06,05,59,13.10
2010,08,06,06,00,13.10
2010,08,06,06,01,13.10
2010,08,06,06,02,13.10
2010,08,06,06,03,13.10
2010,08,06,06,04,13.20
2010,08,06,06,05,13.20
2010,08,06,06,06,13.20
2010,08,06,06,07,13.20
2010,08,06,06,08,13.20
2010,08,06,06,09,13.20
2010,08,06,06,10,13.20
2010,08,06,06,11,13.20
2010,08,06,06,12,13.20
2010,08,06,06,13,13.20
2010,08,06,06,14,13.20
2010,08,06,06,15,13.20
2010,08,06,06,16,13.20
2010,08,06,06,17,13.20
2010,08,06,06,18,13.20
2010,08,06,06,19,13.20
2010,08,06,06,20,13.20
2010,08,06,06,21,13.20
2010,08,06,06,22,13.20
2010,08,06,06,23,13.10
2010,08,06,06,24,13.10
2010,08,06,06,25,13.10
2010,08,06,06,26,13.10
2010,08,06,06,27,13.10
2010,08,06,06,28,13.10
2010,08,06,06,29,13.10
2010,08,06,06,30,13.10
2010,08,06,06,31,13.10
2010,08,06,06,32,13.10
2010,08,06,06,33,13.20
2010,08,06,06,34,13.20
2010,08,06,06,35,13.20
2010,08,06,06,36,13.20
2010,08,06,06,37,13.20
2010,08,06,06,38,13.20
2010,08,06,06,39,13.20
2010,08,06,06,40,13.20
2010,08,06,06,41,13.20
2010,08,06,06,42,13.30
2010,08,06,06,43,13.30
2010,08,06,06,44,13.30
2010,08,06,06,45,13.30
2010,08,06,06,46,13.30
2010,08,06,06,47,13.30
2010,08,06,06,48,13.30
2010,08,06,06,49,13.40
2010,08,06,06,50,13.40
2010,08,06,06,51,13.40
2010,08,06,06,52,13.40
2010,08,06,06,53,13.40
2010,08,06,06,54,13.40
2010,08,06,06,55,13.40
2010,08,06,06,56,13.40
2010,08,06,06,57,13.40
2010,08,06,06,58,13.40
2010,08,06,06,59,13.40
2010,08,06,07,00,13.40
2010,08,06,07,01,13.40
2010,08,06,07,02,13.40
2010,08,06,07,03,13.40
2010,08,06,07,04,13.40
2010,08,06,07,05,13.40
2010,08,06,07,06,13.40
2010,08,06,07,07,13.50
2010,08,06,07,08,13.50
2010,08,06,07,09,13.50
2010,08,06,07,10,13.50
2010,08,06,07,11,13.60
2010,08,06,07,12,13.60
2010,08,06,07,13,13.60
2010,08,06,07,14,13.60
2010,08,06,07,15,13.60
2010,08,06,07,16,13.60
2010,08,06,07,17,13.60
2010,08,06,07,18,13.60
2010,08,06,07,19,13.60
2010,08,06,07,20,13.60
2010,08,06,07,21,13.60
2010,08,06,07,22,13.70
2010,08,06,07,23,13.70
2010,08,06,07,24,13.70
2010,08,06,07,25,13.70
2010,08,06,07,26,13.70
2010,08,06,07,27,13.70
2010,08,06,07,28,13.70
2010,08,06,07,29,13.70
2010,08,06,07,30,13.70
2010,08,06,07,31,13.80
2010,08,06,07,32,13.80
2010,08,06,07,33,13.80
2010,08,06,07,34,13.80
2010,08,06,07,35,13.80
2010,08,06,07,36,13.80
2010,08,06,07,37,13.90
2010,08,06,07,38,13.90
2010,08,06,07,39,13.90
2010,08,06,07,40,13.90
2010,08,06,07,41,14.00
2010,08,06,07,42,14.00
2010,08,06,07,43,14.00
2010,08,06,07,44,14.10
2010,08,06,07,45,14.10
2010,08,06,07,46,14.10
2010,08,06,07,47,14.10
2010,08,06,07,48,14.20
2010,08,06,07,49,14.20
2010,08,06,07,50,14.20
2010,08,06,07,51,14.20
2010,08,06,07,52,14.30
2010,08,06,07,53,14.30
2010,08,06,07,54,14.30
2010,08,06,07,55,14.30
2010,08,06,07,56,14.30
2010,08,06,07,57,14.30
2010,08,06,07,58,14.30
2010,08,06,07,59,14.40
2010,08,06,08,00,14.40
2010,08,06,08,01,14.40
2010,08,06,08,02,14.40
2010,08,06,08,03,14.40
2010,08,06,08,04,14.50
2010,08,06,08,05,14.50
2010,08,06,08,06,14.50
2010,08,06,08,07,14.60
2010,08,06,08,08,14.60
2010,08,06,08,09,14.60
2010,08,06,08,10,14.60
2010,08,06,08,11,14.60
2010,08,06,08,12,14.60
2010,08,06,08,13,14.70
2010,08,06,08,14,14.70
2010,08,06,08,15,14.70
2010,08,06,08,16,14.70
2010,08,06,08,17,14.80
2010,08,06,08,18,14.80
2010,08,06,08,19,14.80
2010,08,06,08,20,14.90
2010,08,06,08,21,14.90
2010,08,06,08,22,14.90
2010,08,06,08,23,14.90
2010,08,06,08,24,14.90
2010,08,06,08,25,14.90
2010,08,06,08,26,15.00
2010,08,06,08,27,15.00
2010,08,06,08,28,15.00
2010,08,06,08,29,15.10
2010,08,06,08,30,15.10
2010,08,06,08,31,15.10
2010,08,06,08,32,15.20
2010,08,06,08,33,15.20
2010,08,06,08,34,15.20
2010,08,06,08,35,15.20
2010,08,06,08,36,15.20
2010,08,06,08,37,15.20
2010,08,06,08,38,15.20
2010,08,06,08,39,15.20
2010,08,06,08,40,15.20
2010,08,06,08,41,15.20
2010,08,06,08,42,15.10
2010,08,06,08,43,15.10
2010,08,06,08,44,15.10
2010,08,06,08,45,15.00
2010,08,06,08,46,15.00
2010,08,06,08,47,15.00
2010,08,06,08,48,15.00
2010,08,06,08,49,14.90
2010,08,06,08,50,14.90
2010,08,06,08,51,14.90
2010,08,06,08,52,14.80
2010,08,06,08,53,14.80
2010,08,06,08,54,14.80
2010,08,06,08,55,14.80
2010,08,06,08,56,14.70
2010,08,06,08,57,14.70
2010,08,06,08,58,14.70
2010,08,06,08,59,14.70
2010,08,06,09,00,14.70
2010,08,06,09,01,14.60
2010,08,06,09,02,14.60
2010,08,06,09,03,14.60
2010,08,06,09,04,14.60
2010,08,06,09,05,14.70
2010,08,06,09,06,14.70
2010,08,06,09,07,14.70
2010,08,06,09,08,14.60
2010,08,06,09,09,14.60
2010,08,06,09,10,14.60
2010,08,06,09,11,14.60
2010,08,06,09,12,14.60
2010,08,06,09,13,14.60
2010,08,06,09,14,14.60
2010,08,06,09,15,14.60
2010,08,06,09,16,14.60
2010,08,06,09,17,14.60
2010,08,06,09,18,14.60
2010,08,06,09,19,14.60
2010,08,06,09,20,14.60
2010,08,06,09,21,14.60
2010,08,06,09,22,14.60
2010,08,06,09,23,14.70
2010,08,06,09,24,14.70
2010,08,06,09,25,14.70
2010,08,06,09,26,14.80
2010,08,06,09,27,14.80
2010,08,06,09,28,14.90
2010,08,06,09,29,14.90
2010,08,06,09,30,15.00
2010,08,06,09,31,15.00
2010,08,06,09,32,15.00
2010,08,06,09,33,15.00
2010,08,06,09,34,15.00
2010,08,06,09,35,15.00
2010,08,06,09,36,15.00
2010,08,06,09,37,15.10
2010,08,06,09,38,15.10
2010,08,06,09,39,15.10
2010,08,06,09,40,15.10
2010,08,06,09,41,15.10
2010,08,06,09,42,15.10
2010,08,06,09,43,15.10
2010,08,06,09,44,15.10
2010,08,06,09,45,15.10
2010,08,06,09,46,15.10
2010,08,06,09,47,15.20
2010,08,06,09,48,15.20
2010,08,06,09,49,15.20
2010,08,06,09,50,15.20
2010,08,06,09,51,15.30
2010,08,06,09,52,15.30
2010,08,06,09,53,15.30
2010,08,06,09,54,15.40
2010,08,06,09,55,15.40
2010,08,06,09,56,15.50
2010,08,06,09,57,15.60
2010,08,06,09,58,15.60
2010,08,06,09,59,15.60
2010,08,06,10,00,15.60
2010,08,06,10,01,15.60
2010,08,06,10,02,15.70
2010,08,06,10,03,15.70
2010,08,06,10,04,15.70
2010,08,06,10,05,15.70
2010,08,06,10,06,15.70
2010,08,06,10,07,15.70
2010,08,06,10,08,15.70
2010,08,06,10,09,15.70
2010,08,06,10,10,15.70
2010,08,06,10,11,15.80
2010,08,06,10,12,15.80
2010,08,06,10,13,15.80
2010,08,06,10,14,15.80
2010,08,06,10,15,15.90
2010,08,06,10,16,15.90
2010,08,06,10,17,16.00
2010,08,06,10,18,16.00
2010,08,06,10,19,16.00
2010,08,06,10,20,16.00
2010,08,06,10,21,16.00
2010,08,06,10,22,16.00
2010,08,06,10,23,16.00
2010,08,06,10,24,16.10
2010,08,06,10,25,16.10
2010,08,06,10,26,16.10
2010,08,06,10,27,16.10
2010,08,06,10,28,16.10
2010,08,06,10,29,16.10
2010,08,06,10,30,16.10
2010,08,06,10,31,16.20
2010,08,06,10,32,16.20
2010,08,06,10,33,16.20
2010,08,06,10,34,16.20
2010,08,06,10,35,16.20
2010,08,06,10,36,16.20
2010,08,06,10,37,16.20
2010,08,06,10,38,16.20
2010,08,06,10,39,16.20
2010,08,06,10,40,16.20
2010,08,06,10,41,16.30
2010,08,06,10,42,16.30
2010,08,06,10,43,16.30
2010,08,06,10,44,16.20
2010,08,06,10,45,16.20
2010,08,06,10,46,16.20
2010,08,06,10,47,16.10
2010,08,06,10,48,16.10
2010,08,06,10,49,16.10
2010,08,06,10,50,16.10
2010,08,06,10,51,16.10
2010,08,06,10,52,16.10
2010,08,06,10,53,16.10
2010,08,06,10,54,16.10
2010,08,06,10,55,16.10
2010,08,06,10,56,16.10
2010,08,06,10,57,16.10
2010,08,06,10,58,16.10
2010,08,06,10,59,16.10
2010,08,06,11,00,16.10
2010,08,06,11,01,16.10
2010,08,06,11,02,16.10
2010,08,06,11,03,16.10
2010,08,06,11,04,16.10
2010,08,06,11,05,16.10
2010,08,06,11,06,16.10
2010,08,06,11,07,16.10
2010,08,06,11,08,16.10
2010,08,06,11,09,16.10
2010,08,06,11,10,16.10
2010,08,06,11,11,16.20
2010,08,06,11,12,16.20
2010,08,06,11,13,16.20
2010,08,06,11,14,16.20
2010,08,06,11,15,16.20
2010,08,06,11,16,16.20
2010,08,06,11,17,16.20
2010,08,06,11,18,16.20
2010,08,06,11,19,16.20
2010,08,06,11,20,16.20
2010,08,06,11,21,16.20
2010,08,06,11,22,16.30
2010,08,06,11,23,16.30
2010,08,06,11,24,16.30
2010,08,06,11,25,16.30
2010,08,06,11,26,16.30
2010,08,06,11,27,16.20
2010,08,06,11,28,16.20
2010,08,06,11,29,16.20
2010,08,06,11,30,16.20
2010,08,06,11,31,16.20
2010,08,06,11,32,16.20
2010,08,06,11,33,16.10
2010,08,06,11,34,16.10
2010,08,06,11,35,16.00
2010,08,06,11,36,16.00
2010,08,06,11,37,15.90
2010,08,06,11,38,15.90
2010,08,06,11,39,15.80
2010,08,06,11,40,15.80
2010,08,06,11,41,15.80
2010,08,06,11,42,15.70
2010,08,06,11,43,15.70
2010,08,06,11,44,15.70
2010,08,06,11,45,15.60
2010,08,06,11,46,15.60
2010,08,06,11,47,15.60
2010,08,06,11,48,15.60
2010,08,06,11,49,15.50
2010,08,06,11,50,15.50
2010,08,06,11,51,15.50
2010,08,06,11,52,15.50
2010,08,06,11,53,15.40
2010,08,06,11,54,15.40
2010,08,06,11,55,15.40
2010,08,06,11,56,15.30
2010,08,06,11,57,15.30
2010,08,06,11,58,15.30
2010,08,06,11,59,15.30
2010,08,06,12,00,15.30
2010,08,06,12,01,15.30
2010,08,06,12,02,15.30
2010,08,06,12,03,15.40
2010,08,06,12,04,15.40
2010,08,06,12,05,15.50
2010,08,06,12,06,15.60
2010,08,06,12,07,15.60
2010,08,06,12,08,15.70
2010,08,06,12,09,15.70
2010,08,06,12,10,15.80
2010,08,06,12,11,15.90
2010,08,06,12,12,15.90
2010,08,06,12,13,15.90
2010,08,06,12,14,15.90
2010,08,06,12,15,15.90
2010,08,06,12,16,15.90
2010,08,06,12,17,15.80
2010,08,06,12,18,15.80
2010,08,06,12,19,15.70
2010,08,06,12,20,15.70
2010,08,06,12,21,15.60
2010,08,06,12,22,15.60
2010,08,06,12,23,15.60
2010,08,06,12,24,15.60
2010,08,06,12,25,15.60
2010,08,06,12,26,15.60
2010,08,06,12,27,15.60
2010,08,06,12,28,15.60
2010,08,06,12,29,15.60
2010,08,06,12,30,15.60
2010,08,06,12,31,15.60
2010,08,06,12,32,15.60
2010,08,06,12,33,15.60
2010,08,06,12,34,15.60
2010,08,06,12,35,15.60
2010,08,06,12,36,15.70
2010,08,06,12,37,15.70
2010,08,06,12,38,15.70
2010,08,06,12,39,15.70
2010,08,06,12,40,15.70
2010,08,06,12,41,15.70
2010,08,06,12,42,15.70
2010,08,06,12,43,15.70
2010,08,06,12,44,15.70
2010,08,06,12,45,15.70
2010,08,06,12,46,15.60
2010,08,06,12,47,15.60
2010,08,06,12,48,15.50
2010,08,06,12,49,15.50
2010,08,06,12,50,15.40
2010,08,06,12,51,15.40
2010,08,06,12,52,15.40
2010,08,06,12,53,15.30
2010,08,06,12,54,15.30
2010,08,06,12,55,15.30
2010,08,06,12,56,15.30
2010,08,06,12,57,15.30
2010,08,06,12,58,15.30
2010,08,06,12,59,15.30
2010,08,06,13,00,15.30
2010,08,06,13,01,15.30
2010,08,06,13,02,15.30
2010,08,06,13,03,15.40
2010,08,06,13,04,15.40
2010,08,06,13,05,15.40
2010,08,06,13,06,15.40
2010,08,06,13,07,15.40
2010,08,06,13,08,15.40
2010,08,06,13,09,15.40
2010,08,06,13,10,15.40
2010,08,06,13,11,15.40
2010,08,06,13,12,15.40
2010,08,06,13,13,15.40
2010,08,06,13,14,15.40
2010,08,06,13,15,15.40
2010,08,06,13,16,15.40
2010,08,06,13,17,15.40
2010,08,06,13,18,15.40
2010,08,06,13,19,15.40
2010,08,06,13,20,15.40
2010,08,06,13,21,15.40
2010,08,06,13,22,15.40
2010,08,06,13,23,15.40
2010,08,06,13,24,15.40
2010,08,06,13,25,15.40
2010,08,06,13,26,15.40
2010,08,06,13,27,15.40
2010,08,06,13,28,15.30
2010,08,06,13,29,15.30
2010,08,06,13,30,15.40
2010,08,06,13,31,15.30
2010,08,06,13,32,15.30
2010,08,06,13,33,15.40
2010,08,06,13,34,15.40
2010,08,06,13,35,15.40
2010,08,06,13,36,15.50
2010,08,06,13,37,15.50
2010,08,06,13,38,15.60
2010,08,06,13,39,15.60
2010,08,06,13,40,15.60
2010,08,06,13,41,15.70
2010,08,06,13,42,15.70
2010,08,06,13,43,15.70
2010,08,06,13,44,15.80
2010,08,06,13,45,15.80
2010,08,06,13,46,15.80
2010,08,06,13,47,15.80
2010,08,06,13,48,15.80
2010,08,06,13,49,15.80
2010,08,06,13,50,15.80
2010,08,06,13,51,15.90
2010,08,06,13,52,15.90
2010,08,06,13,53,15.90
2010,08,06,13,54,15.90
2010,08,06,13,55,15.90
2010,08,06,13,56,15.90
2010,08,06,13,57,15.90
2010,08,06,13,58,15.90
2010,08,06,13,59,15.90
2010,08,06,14,00,15.90
2010,08,06,14,01,15.90
2010,08,06,14,02,16.00
2010,08,06,14,03,16.00
2010,08,06,14,04,16.00
2010,08,06,14,05,16.00
2010,08,06,14,06,16.00
2010,08,06,14,07,16.00
2010,08,06,14,08,16.00
2010,08,06,14,09,16.00
2010,08,06,14,10,16.10
2010,08,06,14,11,16.20
2010,08,06,14,12,16.20
2010,08,06,14,13,16.20
2010,08,06,14,14,16.30
2010,08,06,14,15,16.30
2010,08,06,14,16,16.30
2010,08,06,14,17,16.30
2010,08,06,14,18,16.30
2010,08,06,14,19,16.30
2010,08,06,14,20,16.30
2010,08,06,14,21,16.30
2010,08,06,14,22,16.30
2010,08,06,14,23,16.40
2010,08,06,14,24,16.40
2010,08,06,14,25,16.50
2010,08,06,14,26,16.50
2010,08,06,14,27,16.50
2010,08,06,14,28,16.60
2010,08,06,14,29,16.60
2010,08,06,14,30,16.60
2010,08,06,14,31,16.60
2010,08,06,14,32,16.60
2010,08,06,14,33,16.60
2010,08,06,14,34,16.60
2010,08,06,14,35,16.60
2010,08,06,14,36,16.70
2010,08,06,14,37,16.70
2010,08,06,14,38,16.70
2010,08,06,14,39,16.70
2010,08,06,14,40,16.80
2010,08,06,14,41,16.80
2010,08,06,14,42,16.80
2010,08,06,14,43,16.80
2010,08,06,14,44,16.80
2010,08,06,14,45,16.80
2010,08,06,14,46,16.80
2010,08,06,14,47,16.80
2010,08,06,14,48,16.80
2010,08,06,14,49,16.90
2010,08,06,14,50,16.90
2010,08,06,14,51,16.90
2010,08,06,14,52,16.90
2010,08,06,14,53,16.90
2010,08,06,14,54,16.80
2010,08,06,14,55,16.70
2010,08,06,14,56,16.60
2010,08,06,14,57,16.60
2010,08,06,14,58,16.50
2010,08,06,14,59,16.50
2010,08,06,15,00,16.40
2010,08,06,15,01,16.40
2010,08,06,15,02,16.40
2010,08,06,15,03,16.30
2010,08,06,15,04,16.30
2010,08,06,15,05,16.20
2010,08,06,15,06,16.10
2010,08,06,15,07,16.10
2010,08,06,15,08,16.10
2010,08,06,15,09,16.10
2010,08,06,15,10,16.10
2010,08,06,15,11,16.10
2010,08,06,15,12,16.20
2010,08,06,15,13,16.20
2010,08,06,15,14,16.30
2010,08,06,15,15,16.30
2010,08,06,15,16,16.30
2010,08,06,15,17,16.30
2010,08,06,15,18,16.40
2010,08,06,15,19,16.40
2010,08,06,15,20,16.50
2010,08,06,15,21,16.50
2010,08,06,15,22,16.50
2010,08,06,15,23,16.50
2010,08,06,15,24,16.50
2010,08,06,15,25,16.50
2010,08,06,15,26,16.60
2010,08,06,15,27,16.60
2010,08,06,15,28,16.60
2010,08,06,15,29,16.60
2010,08,06,15,30,16.60
2010,08,06,15,31,16.60
2010,08,06,15,32,16.70
2010,08,06,15,33,16.70
2010,08,06,15,34,16.70
2010,08,06,15,35,16.70
2010,08,06,15,36,16.80
2010,08,06,15,37,16.80
2010,08,06,15,38,16.80
2010,08,06,15,39,16.70
2010,08,06,15,40,16.70
2010,08,06,15,41,16.70
2010,08,06,15,42,16.70
2010,08,06,15,43,16.70
2010,08,06,15,44,16.70
2010,08,06,15,45,16.70
2010,08,06,15,46,16.70
2010,08,06,15,47,16.60
2010,08,06,15,48,16.60
2010,08,06,15,49,16.60
2010,08,06,15,50,16.60
2010,08,06,15,51,16.70
2010,08,06,15,52,16.70
2010,08,06,15,53,16.70
2010,08,06,15,54,16.70
2010,08,06,15,55,16.70
2010,08,06,15,56,16.70
2010,08,06,15,57,16.70
2010,08,06,15,58,16.70
2010,08,06,15,59,16.70
2010,08,06,16,00,16.70
2010,08,06,16,01,16.70
2010,08,06,16,02,16.80
2010,08,06,16,03,16.80
2010,08,06,16,04,16.70
2010,08,06,16,05,16.70
2010,08,06,16,06,16.70
2010,08,06,16,07,16.70
2010,08,06,16,08,16.60
2010,08,06,16,09,16.60
2010,08,06,16,10,16.50
2010,08,06,16,11,16.40
2010,08,06,16,12,16.40
2010,08,06,16,13,16.50
2010,08,06,16,14,16.50
2010,08,06,16,15,16.50
2010,08,06,16,16,16.60
2010,08,06,16,17,16.60
2010,08,06,16,18,16.60
2010,08,06,16,19,16.70
2010,08,06,16,20,16.70
2010,08,06,16,21,16.80
2010,08,06,16,22,16.80
2010,08,06,16,23,16.80
2010,08,06,16,24,16.80
2010,08,06,16,25,16.80
2010,08,06,16,26,16.80
2010,08,06,16,27,16.80
2010,08,06,16,28,16.80
2010,08,06,16,29,16.80
2010,08,06,16,30,16.80
2010,08,06,16,31,16.80
2010,08,06,16,32,16.80
2010,08,06,16,33,16.80
2010,08,06,16,34,16.80
2010,08,06,16,35,16.70
2010,08,06,16,36,16.70
2010,08,06,16,37,16.70
2010,08,06,16,38,16.70
2010,08,06,16,39,16.70
2010,08,06,16,40,16.70
2010,08,06,16,41,16.70
2010,08,06,16,42,16.70
2010,08,06,16,43,16.60
2010,08,06,16,44,16.60
2010,08,06,16,45,16.60
2010,08,06,16,46,16.70
2010,08,06,16,47,16.70
2010,08,06,16,48,16.70
2010,08,06,16,49,16.70
2010,08,06,16,50,16.70
2010,08,06,16,51,16.70
2010,08,06,16,52,16.70
2010,08,06,16,53,16.70
2010,08,06,16,54,16.70
2010,08,06,16,55,16.70
2010,08,06,16,56,16.70
2010,08,06,16,57,16.60
2010,08,06,16,58,16.60
2010,08,06,16,59,16.60
2010,08,06,17,00,16.60
2010,08,06,17,01,16.60
2010,08,06,17,02,16.50
2010,08,06,17,03,16.40
2010,08,06,17,04,16.40
2010,08,06,17,05,16.30
2010,08,06,17,06,16.30
2010,08,06,17,07,16.30
2010,08,06,17,08,16.30
2010,08,06,17,09,16.30
2010,08,06,17,10,16.30
2010,08,06,17,11,16.30
2010,08,06,17,12,16.30
2010,08,06,17,13,16.30
2010,08,06,17,14,16.30
2010,08,06,17,15,16.30
2010,08,06,17,16,16.30
2010,08,06,17,17,16.40
2010,08,06,17,18,16.40
2010,08,06,17,19,16.40